• Join FlightAware (Why Join?)
  • Login
  • US Flag 
08:59PM EST


 

Airport Tracker/Info


-or-


 

Live Flight TrackerFlight Track Log ✈ SKW5516 ✈ 07-Jun-2013 ✈ KDEN - KBOI

Flight Track Log - Related Links

Times and Time Zones

All times are in EDT time to prevent confusion due to time zone crossing. See the SKW5516 flight status page for this flight to view local times or setup timezone preferences in your user account.

Time Position Orientation Groundspeed Altitude Reporting Facility
EDT Latitude Longitude Course Direction KTS MPH feet Rate Location/Type
10:25AM 39.8667 -104.8000 270° West 209 241 8,000  Level Denver TRACON
10:26AM 39.9000 -104.8667 303° West 259 298 9,700 1,692 Climbing Denver TRACON
10:27AM 39.9075 -104.8972 288° West 263 303 10,200 2,250 Climbing Denver Center
10:28AM 39.9450 -104.9944 297° West 298 343 12,700 2,661 Climbing Denver Center
10:29AM 39.9606 -105.1150 280° West 311 358 15,700 2,565 Climbing Denver Center
10:30AM 39.9167 -105.3532 270° West  Level FlightAware Approximate
10:30AM 39.9725 -105.2283 278° West 319 367 18,000  Level Denver Center
10:31AM 39.9842 -105.3542 277° West 324 373 20,100 1,984 Climbing Denver Center
10:32AM 39.9808 -105.4772 268° West 338 389 22,100 2,032 Climbing Denver Center
10:33AM 39.9761 -105.6175 268° West 351 404 24,300 1,742 Climbing Denver Center
10:34AM 39.9728 -105.7519 268° West 377 434 25,700 1,258 Climbing Denver Center
10:35AM 39.9725 -105.8867 270° West 374 430 26,900 1,210 Climbing Denver Center
10:36AM 39.9814 -106.0297 275° West 393 452 28,200 1,210 Climbing Denver Center
10:37AM 40.0025 -106.1739 281° West 407 468 29,400 1,210 Climbing Denver Center
10:38AM 40.0569 -106.3033 299° West 407 468 30,700 1,306 Climbing Denver Center
10:39AM 40.1225 -106.4600 299° West 409 471 32,100 1,403 Climbing Denver Center
10:40AM 40.1767 -106.5919 298° West 414 476 33,600 1,548 Climbing Denver Center
10:41AM 40.2342 -106.7286 299° West 407 468 35,300 1,161 Climbing Denver Center
10:42AM 40.2872 -106.8594 298° West 402 463 36,000 339 Climbing Denver Center
10:43AM 40.3381 -106.9858 298° West 409 471 36,000  Level Denver Center
10:44AM 40.4006 -107.1369 299° West 420 483 36,000  Level Denver Center
10:45AM 40.4525 -107.2664 298° West 420 483 36,000  Level Denver Center
10:46AM 40.5117 -107.4153 298° West 414 476 36,000  Level Denver Center
10:47AM 40.5636 -107.5428 298° West 414 476 36,000  Level Denver Center
10:48AM 40.6236 -107.6922 298° West 414 476 36,000 242 Level Denver Center
10:49AM 40.6747 -107.8200 298° West 414 476 36,500 726 Climbing Denver Center
10:50AM 40.7342 -107.9692 298° West 413 475 37,500 726 Climbing Denver Center
10:51AM 40.7839 -108.0928 298° West 412 474 38,000 242 Climbing Denver Center
10:52AM 40.8425 -108.2442 297° West 417 480 38,000  Level Denver Center
10:53AM 40.8767 -108.3333 297° West 421 484 38,000  Level Salt Lake Center
10:54AM 40.9283 -108.4653 297° West 421 484 38,000  Level Salt Lake Center
10:55AM 40.9875 -108.6197 297° West 421 484 38,000  Level Salt Lake Center
10:56AM 41.0050 -108.6628 298° West 420 483 38,000  Level Denver Center
10:57AM 41.0639 -108.8169 297° West 419 482 38,000  Level Denver Center
10:57AM 41.0975 -108.9047 297° West 418 481 38,000  Level Salt Lake Center
10:58AM 41.1467 -109.0358 297° West 415 478 38,000  Level Salt Lake Center
10:59AM 41.1947 -109.1664 296° West 410 472 38,000  Level Salt Lake Center
11:00AM 41.2528 -109.3161 297° West 405 466 38,000  Level Salt Lake Center
11:01AM 41.3006 -109.4414 297° West 395 455 38,000  Level Salt Lake Center
11:02AM 41.3544 -109.5836 297° West 384 442 38,000  Level Salt Lake Center
11:03AM 41.4000 -109.7064 296° West 384 442 38,000  Level Salt Lake Center
11:05AM 41.4533 -109.8506 296° West 388 447 38,000  Level Salt Lake Center
11:06AM 41.4994 -109.9758 296° West 392 451 38,000  Level Salt Lake Center
11:07AM 41.5544 -110.1222 297° West 396 456 38,000  Level Salt Lake Center
11:08AM 41.6006 -110.2500 296° West 399 459 38,000  Level Salt Lake Center
11:09AM 41.6483 -110.3786 296° West 403 464 38,000  Level Salt Lake Center
11:10AM 41.7025 -110.5300 296° West 404 465 38,000  Level Salt Lake Center
11:11AM 41.7497 -110.6592 296° West 405 466 38,000  Level Salt Lake Center
11:12AM 41.8047 -110.8122 296° West 409 471 38,000  Level Salt Lake Center
11:13AM 41.8533 -110.9517 295° West 409 471 38,000  Level Salt Lake Center
11:14AM 41.9028 -111.0892 296° West 410 472 38,000  Level Salt Lake Center
11:15AM 41.9522 -111.2267 296° West 412 474 38,000  Level Salt Lake Center
11:16AM 42.0008 -111.3664 295° West 415 478 38,000  Level Salt Lake Center
11:17AM 42.0592 -111.5344 295° West 415 478 38,000  Level Salt Lake Center
11:18AM 42.1081 -111.6733 295° West 415 478 38,000  Level Salt Lake Center
11:19AM 42.1567 -111.8133 295° West 414 476 38,000  Level Salt Lake Center
11:20AM 42.2044 -111.9522 295° West 412 474 38,000  Level Salt Lake Center
11:21AM 42.2514 -112.0908 295° West 409 471 38,000  Level Salt Lake Center
11:22AM 42.3089 -112.2575 295° West 409 471 38,000  Level Salt Lake Center
11:23AM 42.3567 -112.3956 295° West 407 468 38,000  Level Salt Lake Center
11:24AM 42.4022 -112.5350 294° West 407 468 38,000  Level Salt Lake Center
11:25AM 42.4489 -112.6725 295° West 405 466 38,000  Level Salt Lake Center
11:26AM 42.4950 -112.8086 295° West 400 460 38,000  Level Salt Lake Center
11:27AM 42.5414 -112.9461 295° West 402 463 38,000  Level Salt Lake Center
11:28AM 42.5953 -113.1108 294° West 400 460 38,000 48 Level Salt Lake Center
11:29AM 42.6408 -113.2492 294° West 403 464 38,100 48 Climbing Salt Lake Center
11:30AM 42.6847 -113.3792 295° West 400 460 38,100 -48 Level Salt Lake Center
11:31AM 42.7350 -113.5347 294° West 403 464 38,000 -581 Descending Salt Lake Center
11:32AM 42.7778 -113.6664 294° West 399 459 36,900 -1,488 Descending Salt Lake Center
11:33AM 42.8269 -113.8183 294° West 392 451 34,900 -1,872 Descending Salt Lake Center
11:34AM 42.8706 -113.9669 292° West 400 460 33,000 -1,839 Descending Salt Lake Center
11:36AM 42.9164 -114.1092 294° West 412 474 31,100 -1,935 Descending Salt Lake Center
11:37AM 42.9678 -114.2603 295° West 423 487 29,000 -1,935 Descending Salt Lake Center
11:38AM 43.0114 -114.3983 293° West 414 476 27,100 -1,887 Descending Salt Lake Center
11:39AM 43.0594 -114.5533 293° West 398 458 25,100 -1,935 Descending Salt Lake Center
11:40AM 43.1008 -114.6842 293° West 391 450 23,100 -2,129 Descending Salt Lake Center
11:41AM 43.1458 -114.8300 293° West 371 427 20,700 -2,226 Descending Salt Lake Center
11:42AM 43.1858 -114.9606 293° West 367 422 18,500 -2,032 Descending Salt Lake Center
11:43AM 43.2086 -115.1006 283° West 367 422 16,500 -2,081 Descending Salt Lake Center
11:44AM 43.2392 -115.2364 287° West 358 412 14,200 -1,694 Descending Salt Lake Center
11:45AM 43.2792 -115.3514 296° West 326 375 13,000 -677 Descending Salt Lake Center
11:46AM 43.3111 -115.4514 294° West 300 345 12,800 -1,065 Descending Salt Lake Center
11:47AM 43.3433 -115.5467 295° West 269 310 10,800 -1,742 Descending Salt Lake Center
11:48AM 43.3742 -115.6411 294° West 262 302 9,200 -1,306 Descending Salt Lake Center
11:49AM 43.3994 -115.7311 291° West 247 284 8,100 -919 Descending Salt Lake Center
11:50AM 43.4239 -115.8031 295° West 203 234 7,300 -774 Descending Salt Lake Center
11:51AM 43.4433 -115.8647 293° West 174 200 6,500 -677 Descending Salt Lake Center
11:52AM 43.4628 -115.9275 293° West 173 199 5,900 -387 Descending Salt Lake Center
11:53AM 43.4864 -115.9981 295° West 190 219 5,700 -387 Descending Salt Lake Center
11:54AM 43.5078 -116.0536 298° West 176 203 5,100 -677 Descending Salt Lake Center
11:55AM 43.5228 -116.1022 293° West 133 153 4,300 -677 Descending Salt Lake Center
11:56AM 43.5381 -116.1464 296° West 131 151 3,700 -581 Descending Salt Lake Center
11:58AM 43.5500 -116.2167 295° West  Level FlightAware Approximate
12:05PM 43.5644 -116.2229 295° West  Level Estimated
12:06PM 43.5644 -116.2229 295° West  Level Estimated
12:07PM 43.5644 -116.2229 295° West  Level Estimated